Regional Weather Roundup
Issued by NWS Columbia, SC

Current Version | Previous Version | Text Only | Print | Product List | Glossary On
Versions: 1 2 3 4 5 6 7 8 9 10 11 12 13 14 15 16 17 18 19 20 21 22 23 24 25 26 27 28
000
ASUS42 KCAE 191810
RWRCAE
REGIONAL WEATHER ROUNDUP
NATIONAL WEATHER SERVICE COLUMBIA SC
200 PM EDT THU APR 19 2018

NOTE: "FAIR" INDICATES FEW OR NO CLOUDS BELOW 12,000 FEET WITH NO
SIGNIFICANT WEATHER AND/OR OBSTRUCTIONS TO VISIBILITY.

NOT ALL STATIONS ARE QUALITY CONTROLLED BY THE NATIONAL
WEATHER SERVICE. USE DATA WITH CAUTION...ESPECIALLY
DEWPOINT OBSERVATIONS.

SCZ001>056-GAZ040-063>065-077-191900-
...UPSTATE SOUTH CAROLINA...

CITY           SKY/WX    TMP DP  RH WIND       PRES   REMARKS
ANDERSON       FAIR      70  37  29 W17G23    29.97R
6HR MIN TEMP:  65; 6HR MAX TEMP:  71;

LIBERTY        FAIR      72  32  22 NW13G25   29.95R
6HR MIN TEMP:  66; 6HR MAX TEMP:  72;

SPARTANBURG    FAIR      68  36  30 N14G21    29.95R
CLEMSON        FAIR      70  35  27 N7G17     29.97R
6HR MIN TEMP:  63; 6HR MAX TEMP:  71;

GREENVILLE     FAIR      73  38  27 N12G21    29.94R
6HR MIN TEMP:  66; 6HR MAX TEMP:  75;

GREENWOOD      FAIR      72  35  25 W17G29    29.97R
6HR MIN TEMP:  63; 6HR MAX TEMP:  74;

GREER          FAIR      69  38  32 NE14      29.95R
6HR MIN TEMP:  65; 6HR MAX TEMP:  74;

ROCK HILL      FAIR      73  42  32 N12G25    29.92R
6HR MIN TEMP:  65; 6HR MAX TEMP:  75;

CHESTER        FAIR      75  39  27 N12G20    29.90R
LAURENS        FAIR      72  37  28 W12G17    29.94R


...CENTRAL SOUTH CAROLINA...

CITY           SKY/WX    TMP DP  RH WIND       PRES   REMARKS
COLUMBIA APT   FAIR      82  43  25 W24G36    29.90S
6HR MIN TEMP:  67; 6HR MAX TEMP:  82;

COLUMBIA OWENS FAIR      80  40  23 W17G31    29.91S
6HR MIN TEMP:  67; 6HR MAX TEMP:  80;

MCENTIRE ANGB  MOSUNNY   80  45  28 W16G25    29.90S
6HR MIN TEMP:  65; 6HR MAX TEMP:  80;

ORANGEBURG     PTSUNNY   78  53  41 W20G29    29.92R
6HR MIN TEMP:  65; 6HR MAX TEMP:  81;

SUMTER SHAW    MOSUNNY   81  46  28 W20G30    29.86S
6HR MIN TEMP:  66; 6HR MAX TEMP:  82; 6HR PCP: TRACE;

NEWBERRY       FAIR      75  39  27 W16G28    29.96R
AIKEN          FAIR      77  41  27 W22G35    29.99R
BARNWELL       FAIR      81  54  39 W14G24    29.94R
MANNING        MOCLDY    75  52  43 W17G24    29.90S
CAMDEN         FAIR      79  46  31 SW23G29   29.89R
LANCASTER      FAIR      77  45  31 W12G18    29.88R
WINNSBORO      FAIR      77  36  22 W12G28    29.91R


...EASTERN AND COASTAL SOUTH CAROLINA...

CITY           SKY/WX    TMP DP  RH WIND       PRES   REMARKS
MYRTLE BEACH   FAIR      82  58  43 W21G29    29.87S
6HR MIN TEMP:  67; 6HR MAX TEMP:  83;

N MYRTLE BCH   FAIR      82  54  37 W17G29    29.83F
6HR MIN TEMP:  68; 6HR MAX TEMP:  83;

CONWAY         FAIR      81  55  41 W10G24    29.86S HAZE
MARION         FAIR      81  46  30 W18G33    29.85S HAZE
HARTSVILLE     FAIR      79  45  29 SW13G24   29.86S
FLORENCE       FAIR      82  50  32 W21G35    29.86R
6HR MIN TEMP:  68; 6HR MAX TEMP:  82;

DARLINGTON     FAIR      81  47  30 W15G30    29.86R
6HR MIN TEMP:  67; 6HR MAX TEMP:  81;

CHARLESTON APT FAIR      82  57  42 W18G26    29.91F
6HR MIN TEMP:  66; 6HR MAX TEMP:  83;

MOUNT PLEASANT FAIR      82  59  44 W15G23    29.91S
WALTERBORO     FAIR      79  57  47 W21G26    29.94S
BEAUFORT       FAIR      83  61  47 W17G29    29.94
6HR MIN TEMP:  67; 6HR MAX TEMP:  84;



...EASTERN GEORGIA...

CITY           SKY/WX    TMP DP  RH WIND       PRES   REMARKS
AUGUSTA BUSH F FAIR      80  48  32 W18G29    29.95S
6HR MIN TEMP:  65; 6HR MAX TEMP:  81;

AUGUSTA DANIEL FAIR      80  48  32 W9G24     29.97R
6HR MIN TEMP:  66; 6HR MAX TEMP:  80;

THOMSON        FAIR      75  41  29 NW17G23   30.04S
6HR MIN TEMP:  64; 6HR MAX TEMP:  76;

CLAXTON        FAIR      80  62  52 SW18G26   29.99F
6HR MIN TEMP:  66; 6HR MAX TEMP:  80;

SYLVANIA       MOCLDY    81  63  54 W12G24    29.98S
STATESBORO     PTSUNNY   79  54  41 W12G26    29.98F
6HR MIN TEMP:  66; 6HR MAX TEMP:  81;

SAVANNAH       FAIR      83  60  45 W21G33    29.97F
6HR MIN TEMP:  66; 6HR MAX TEMP:  84;



...SOUTHERN NORTH CAROLINA...

CITY           SKY/WX    TMP DP  RH WIND       PRES   REMARKS
CHARLOTTE      FAIR      70  38  31 NW21G28   29.94R
6HR MIN TEMP:  66; 6HR MAX TEMP:  75;

MONROE         FAIR      73  41  31 N18G28    29.89R
6HR MIN TEMP:  66; 6HR MAX TEMP:  77;

WADESBORO      FAIR      78  43  28 W13G23    29.86R
6HR MIN TEMP:  68; 6HR MAX TEMP:  78;

ROCKINGHAM     FAIR      76  51  41 W12G24    29.85R
6HR MIN TEMP:  67; 6HR MAX TEMP:  78;

RUTHERFORDTON  FAIR      62  35  35 NW16G29   30.01R
6HR MIN TEMP:  61; 6HR MAX TEMP:  65;

ASHEVILLE      FAIR      52  34  50 N21G29    30.06R
6HR MIN TEMP:  51; 6HR MAX TEMP:  57;


$$




USA.gov is the U.S. government's official web portal to all federal, state and local government web resources and services.